User: anonymous   Login
Location: Melbourne
(37.8170°S, 144.9670°E)
Time: 17:25:31
(UTC+10:00)
Language:

Aureole 2 Rocket - Orbit

View from above orbital plane
View from above orbital plane
View from above satellite
View from above satellite

Ground track
Ground track

The orbit data is extracted from the following two-line orbital elements,

1  7004U 73107B   18115.94167550 +.00006995 +00000-0 +89485-4 0  9999
2  7004 073.9301 099.6791 0155159 249.6549 108.7934 15.46278644285466
Epoch (UTC): 25 April 2018 22:36:00
Eccentricity: 0.0155159
inclination: 73.9301°
perigee height: 322 km
apogee height: 533 km
right ascension of ascending node: 99.6791°
argument of perigee: 249.6549°
revolutions per day: 15.46278644
mean anomaly at epoch: 108.7934°
orbit number at epoch: 28546

The dashed part of the orbit path shows where the satellite is in the earth's shadow,  

DLR